| time (UTC) | temp C | wind direction | speed KPH | gust KPH | rain 1hr cm | rain 24hr cm | rain mn cm | humidity % | barometer mb |
| 20260506004342 | 16 | 324 | 8.0 | 16.1 | 0.00 | 0.00 | 0.00 | 70 | 1010.1 |
| 20260506003841 | 16 | 274 | 8.0 | 16.1 | 0.00 | 0.00 | 0.00 | 70 | 1010.1 |
| 20260506003339 | 16 | 240 | 8.0 | 19.3 | 0.00 | 0.00 | 0.00 | 70 | 1010.1 |
| 20260506002840 | 17 | 302 | 9.7 | 22.5 | 0.00 | 0.00 | 0.00 | 69 | 1009.9 |
| 20260506002336 | 17 | 314 | 8.0 | 22.5 | 0.00 | 0.00 | 0.00 | 67 | 1009.9 |
| 20260506001835 | 17 | 273 | 6.4 | 17.7 | 0.00 | 0.00 | 0.00 | 67 | 1009.9 |
| 20260506001334 | 17 | 301 | 8.0 | 17.7 | 0.00 | 0.00 | 0.00 | 67 | 1009.9 |
| 20260506000833 | 17 | 299 | 8.0 | 16.1 | 0.00 | 0.00 | 0.00 | 66 | 1009.9 |
| 20260506000331 | 17 | 304 | 8.0 | 19.3 | 0.00 | 0.00 | 0.00 | 67 | 1009.9 |
| 20260505235330 | 17 | 309 | 8.0 | 20.9 | 0.00 | 0.00 | 0.00 | 63 | 1010.0 |
| 20260505234324 | 18 | 300 | 8.0 | 19.3 | 0.00 | 0.00 | 0.00 | 66 | 1010.2 |
| 20260505233324 | 18 | 273 | 8.0 | 17.7 | 0.00 | 0.00 | 0.00 | 66 | 1010.2 |
| 20260505232320 | 18 | 322 | 8.0 | 17.7 | 0.00 | 0.00 | 0.00 | 65 | 1010.0 |
| 20260505231819 | 18 | 290 | 8.0 | 17.7 | 0.00 | 0.00 | 0.00 | 67 | 1010.0 |
| 20260505230819 | 18 | 325 | 9.7 | 20.9 | 0.00 | 0.00 | 0.00 | 66 | 1010.2 |
| 20260505230324 | 18 | 313 | 9.7 | 17.7 | 0.00 | 0.00 | 0.00 | 66 | 1010.2 |
| 20260505225819 | 18 | 324 | 8.0 | 19.3 | 0.00 | 0.00 | 0.00 | 66 | 1010.1 |
| 20260505225316 | 18 | 346 | 9.7 | 22.5 | 0.00 | 0.00 | 0.00 | 66 | 1010.1 |
| 20260505224816 | 18 | 302 | 9.7 | 22.5 | 0.00 | 0.00 | 0.00 | 65 | 1010.1 |
| 20260505224314 | 18 | 311 | 8.0 | 17.7 | 0.00 | 0.00 | 0.00 | 65 | 1010.2 |
| 20260505223815 | 18 | 336 | 9.7 | 17.7 | 0.00 | 0.00 | 0.00 | 65 | 1010.2 |
| 20260505223310 | 18 | 323 | 9.7 | 20.9 | 0.00 | 0.00 | 0.00 | 64 | 1010.2 |
| 20260505222308 | 18 | 313 | 8.0 | 16.1 | 0.00 | 0.00 | 0.00 | 64 | 1010.3 |
| 20260505221809 | 18 | 313 | 8.0 | 19.3 | 0.00 | 0.00 | 0.00 | 63 | 1010.3 |
| 20260505221311 | 19 | 277 | 9.7 | 20.9 | 0.00 | 0.00 | 0.00 | 63 | 1010.3 |
| 20260505220812 | 19 | 299 | 9.7 | 22.5 | 0.00 | 0.00 | 0.00 | 62 | 1010.3 |
| 20260505220307 | 19 | 329 | 8.0 | 22.5 | 0.00 | 0.00 | 0.00 | 62 | 1010.3 |
| 20260505215804 | 19 | 332 | 8.0 | 17.7 | 0.00 | 0.00 | 0.00 | 62 | 1010.6 |
| 20260505215305 | 18 | 11 | 9.7 | 17.7 | 0.00 | 0.00 | 0.00 | 64 | 1010.6 |
| 20260505214801 | 18 | 323 | 9.7 | 17.7 | 0.00 | 0.00 | 0.00 | 64 | 1010.6 |
| 20260505214255 | 18 | 306 | 9.7 | 25.7 | 0.00 | 0.00 | 0.00 | 66 | 1010.8 |
| 20260505213756 | 18 | 332 | 9.7 | 25.7 | 0.00 | 0.00 | 0.00 | 64 | 1010.7 |
| 20260505213258 | 18 | 277 | 11.3 | 22.5 | 0.00 | 0.00 | 0.00 | 66 | 1010.8 |
| 20260505212751 | 18 | 291 | 9.7 | 22.5 | 0.00 | 0.00 | 0.00 | 64 | 1010.8 |
| 20260505212253 | 18 | 309 | 8.0 | 17.7 | 0.00 | 0.00 | 0.00 | 63 | 1010.8 |
| 20260505211751 | 18 | 323 | 8.0 | 17.7 | 0.00 | 0.00 | 0.00 | 65 | 1010.8 |
| 20260505211255 | 18 | 319 | 8.0 | 19.3 | 0.00 | 0.00 | 0.00 | 63 | 1010.7 |
| 20260505210755 | 18 | 303 | 9.7 | 19.3 | 0.00 | 0.00 | 0.00 | 63 | 1010.7 |
| 20260505210249 | 17 | 266 | 9.7 | 19.3 | 0.00 | 0.00 | 0.00 | 63 | 1010.7 |
| 20260505205749 | 18 | 306 | 8.0 | 17.7 | 0.00 | 0.00 | 0.00 | 61 | 1010.8 |
| 20260505205248 | 18 | 328 | 8.0 | 19.3 | 0.00 | 0.00 | 0.00 | 60 | 1010.8 |
| 20260505204747 | 18 | 311 | 9.7 | 20.9 | 0.00 | 0.00 | 0.00 | 60 | 1010.8 |
| 20260505204246 | 18 | 317 | 9.7 | 20.9 | 0.00 | 0.00 | 0.00 | 60 | 1010.8 |
| 20260505203744 | 18 | 321 | 11.3 | 22.5 | 0.00 | 0.00 | 0.00 | 62 | 1010.7 |
| 20260505203245 | 17 | 262 | 9.7 | 22.5 | 0.00 | 0.00 | 0.00 | 62 | 1010.7 |
| 20260505202743 | 17 | 258 | 8.0 | 19.3 | 0.00 | 0.00 | 0.00 | 61 | 1010.7 |
| 20260505201738 | 17 | 303 | 8.0 | 17.7 | 0.00 | 0.00 | 0.00 | 62 | 1010.7 |
| 20260505201235 | 17 | 277 | 8.0 | 17.7 | 0.00 | 0.00 | 0.00 | 64 | 1010.7 |
| 20260505200741 | 17 | 309 | 8.0 | 19.3 | 0.00 | 0.00 | 0.00 | 62 | 1010.7 |
| 20260505200242 | 17 | 313 | 9.7 | 22.5 | 0.00 | 0.00 | 0.00 | 64 | 1010.7 |
| 20260505195734 | 17 | 321 | 11.3 | 22.5 | 0.00 | 0.00 | 0.00 | 61 | 1010.7 |
| 20260505194228 | 17 | 322 | 9.7 | 22.5 | 0.00 | 0.00 | 0.00 | 59 | 1010.6 |
| 20260505193725 | 18 | 265 | 6.4 | 22.5 | 0.00 | 0.00 | 0.00 | 58 | 1010.7 |
| 20260505193227 | 18 | 347 | 6.4 | 17.7 | 0.00 | 0.00 | 0.00 | 60 | 1010.7 |
| 20260505192224 | 18 | 314 | 6.4 | 12.9 | 0.00 | 0.00 | 0.00 | 57 | 1010.7 |
| 20260505191721 | 18 | 11 | 6.4 | 14.5 | 0.00 | 0.00 | 0.00 | 55 | 1010.7 |
| 20260505191221 | 18 | 313 | 6.4 | 14.5 | 0.00 | 0.00 | 0.00 | 57 | 1010.7 |
| 20260505190723 | 19 | 316 | 8.0 | 14.5 | 0.00 | 0.00 | 0.00 | 55 | 1010.7 |
| 20260505185716 | 18 | 355 | 6.4 | 14.5 | 0.00 | 0.00 | 0.00 | 54 | 1010.5 |
| 20260505185212 | 18 | 316 | 8.0 | 14.5 | 0.00 | 0.00 | 0.00 | 55 | 1010.5 |
| 20260505184711 | 18 | 322 | 6.4 | 12.9 | 0.00 | 0.00 | 0.00 | 55 | 1010.5 |
| 20260505184209 | 18 | 336 | 6.4 | 12.9 | 0.00 | 0.00 | 0.00 | 54 | 1010.6 |
| 20260505183705 | 19 | 299 | 6.4 | 14.5 | 0.00 | 0.00 | 0.00 | 53 | 1010.6 |
| 20260505182701 | 19 | 312 | 6.4 | 16.1 | 0.00 | 0.00 | 0.00 | 54 | 1010.6 |
| 20260505181651 | 19 | 318 | 4.8 | 12.9 | 0.00 | 0.00 | 0.00 | 55 | 1010.6 |
| 20260505181151 | 19 | 20 | 3.2 | 11.3 | 0.00 | 0.00 | 0.00 | 58 | 1010.4 |
| 20260505180649 | 18 | 293 | 4.8 | 14.5 | 0.00 | 0.00 | 0.00 | 59 | 1010.4 |
| 20260505180150 | 18 | 311 | 6.4 | 14.5 | 0.00 | 0.00 | 0.00 | 58 | 1010.4 |
| 20260505175649 | 18 | 295 | 6.4 | 11.3 | 0.00 | 0.00 | 0.00 | 60 | 1010.3 |
| 20260505175144 | 17 | 320 | 4.8 | 12.9 | 0.00 | 0.00 | 0.00 | 61 | 1010.2 |
| 20260505174643 | 17 | 327 | 6.4 | 17.7 | 0.00 | 0.00 | 0.00 | 61 | 1010.2 |
| 20260505174139 | 17 | 298 | 8.0 | 17.7 | 0.00 | 0.00 | 0.00 | 61 | 1010.2 |
| 20260505173636 | 18 | 259 | 6.4 | 16.1 | 0.00 | 0.00 | 0.00 | 60 | 1010.3 |
| 20260505173134 | 18 | 279 | 4.8 | 12.9 | 0.00 | 0.00 | 0.00 | 59 | 1010.3 |
| 20260505172635 | 18 | 322 | 3.2 | 11.3 | 0.00 | 0.00 | 0.00 | 63 | 1010.3 |
| 20260505172130 | 17 | 292 | 4.8 | 12.9 | 0.00 | 0.00 | 0.00 | 63 | 1010.2 |
| 20260505171627 | 16 | 290 | 6.4 | 12.9 | 0.00 | 0.00 | 0.00 | 63 | 1010.2 |
| 20260505170128 | 16 | 290 | 6.4 | 14.5 | 0.00 | 0.00 | 0.00 | 66 | 1010.2 |
| 20260505165626 | 16 | 275 | 4.8 | 11.3 | 0.00 | 0.00 | 0.00 | 65 | 1010.3 |
| 20260505165129 | 16 | 315 | 4.8 | 11.3 | 0.00 | 0.00 | 0.00 | 67 | 1010.3 |
| 20260505164624 | 16 | 333 | 4.8 | 11.3 | 0.00 | 0.00 | 0.00 | 68 | 1010.3 |
| 20260505164120 | 16 | 323 | 6.4 | 11.3 | 0.00 | 0.00 | 0.00 | 69 | 1010.3 |
| 20260505163618 | 15 | 296 | 4.8 | 12.9 | 0.00 | 0.00 | 0.00 | 71 | 1010.3 |
| 20260505163118 | 15 | 276 | 3.2 | 12.9 | 0.00 | 0.00 | 0.00 | 72 | 1010.3 |
| 20260505162615 | 15 | 5 | 4.8 | 9.7 | 0.00 | 0.00 | 0.00 | 74 | 1010.2 |
| 20260505162114 | 15 | 317 | 3.2 | 8.0 | 0.00 | 0.00 | 0.00 | 76 | 1010.2 |
| 20260505161615 | 15 | 317 | 3.2 | 8.0 | 0.00 | 0.00 | 0.00 | 78 | 1010.2 |
| 20260505161111 | 14 | 317 | 3.2 | 8.0 | 0.00 | 0.00 | 0.00 | 79 | 1010.1 |
| 20260505160607 | 14 | 317 | 3.2 | 8.0 | 0.00 | 0.00 | 0.00 | 78 | 1010.1 |
| 20260505160110 | 14 | 317 | 3.2 | 8.0 | 0.00 | 0.00 | 0.00 | 78 | 1010.1 |
| 20260505153050 | 14 | 315 | 1.6 | 6.4 | 0.00 | 0.00 | 0.00 | 85 | 1009.9 |
| 20260505152547 | 13 | 308 | 0.0 | 4.8 | 0.00 | 0.00 | 0.00 | 87 | 1009.7 |
| 20260505152046 | 13 | 308 | 0.0 | 4.8 | 0.00 | 0.00 | 0.00 | 87 | 1009.7 |
| 20260505151539 | 13 | 301 | 0.0 | 4.8 | 0.00 | 0.00 | 0.00 | 89 | 1009.7 |
| 20260505151036 | 13 | 298 | 0.0 | 4.8 | 0.00 | 0.00 | 0.00 | 91 | 1009.8 |
| 20260505150530 | 12 | 298 | 1.6 | 4.8 | 0.00 | 0.00 | 0.00 | 93 | 1009.7 |
| 20260505140515 | 8 | 296 | 0.0 | 0.0 | 0.00 | 0.00 | 0.00 | 94 | 1009.5 |
| 20260505124949 | 8 | 296 | 0.0 | 0.0 | 0.00 | 0.00 | 0.00 | 93 | 1009.0 |
| 20260505124445 | 8 | 296 | 0.0 | 0.0 | 0.00 | 0.00 | 0.00 | 93 | 1009.0 |
| 20260505123942 | 8 | 296 | 0.0 | 0.0 | 0.00 | 0.00 | 0.00 | 93 | 1009.1 |
| 20260505123437 | 8 | 296 | 0.0 | 0.0 | 0.00 | 0.00 | 0.00 | 93 | 1009.2 |
| 20260505122940 | 9 | 296 | 0.0 | 0.0 | 0.00 | 0.00 | 0.00 | 93 | 1009.2 |
| 20260505122434 | 9 | 296 | 0.0 | 0.0 | 0.00 | 0.00 | 0.00 | 94 | 1009.3 |
| 20260505120926 | 9 | 296 | 0.0 | 0.0 | 0.00 | 0.00 | 0.00 | 94 | 1009.3 |
| 20260505120424 | 9 | 296 | 0.0 | 0.0 | 0.00 | 0.00 | 0.00 | 94 | 1009.3 |
| 20260505115930 | 9 | 296 | 0.0 | 0.0 | 0.00 | 0.00 | 0.00 | 94 | 1009.3 |
| 20260505115426 | 9 | 296 | 0.0 | 0.0 | 0.00 | 0.00 | 0.00 | 94 | 1009.3 |
| 20260505114418 | 9 | 296 | 0.0 | 0.0 | 0.00 | 0.00 | 0.00 | 94 | 1009.3 |
| 20260505113918 | 9 | 296 | 0.0 | 0.0 | 0.00 | 0.00 | 0.00 | 94 | 1009.4 |
| 20260505113418 | 9 | 296 | 0.0 | 0.0 | 0.00 | 0.00 | 0.00 | 94 | 1009.4 |
| 20260505112912 | 9 | 296 | 0.0 | 0.0 | 0.00 | 0.00 | 0.00 | 94 | 1009.4 |
| 20260505111404 | 8 | 296 | 0.0 | 0.0 | 0.00 | 0.00 | 0.00 | 94 | 1009.4 |
| 20260505110403 | 8 | 296 | 0.0 | 0.0 | 0.00 | 0.00 | 0.00 | 93 | 1009.3 |
| 20260505101842 | 9 | 296 | 0.0 | 0.0 | 0.00 | 0.00 | 0.00 | 92 | 1009.1 |
| 20260505100829 | 9 | 296 | 0.0 | 0.0 | 0.00 | 0.00 | 0.00 | 92 | 1009.3 |
| 20260505100327 | 9 | 296 | 0.0 | 0.0 | 0.00 | 0.00 | 0.00 | 92 | 1009.3 |
| 20260505095824 | 10 | 296 | 0.0 | 0.0 | 0.00 | 0.00 | 0.00 | 92 | 1009.4 |
| 20260505095321 | 10 | 296 | 0.0 | 0.0 | 0.00 | 0.00 | 0.00 | 92 | 1009.4 |
| 20260505094820 | 10 | 296 | 0.0 | 0.0 | 0.00 | 0.00 | 0.00 | 92 | 1009.4 |
| 20260505094315 | 10 | 296 | 0.0 | 0.0 | 0.00 | 0.00 | 0.00 | 92 | 1009.6 |
| 20260505093811 | 10 | 296 | 0.0 | 0.0 | 0.00 | 0.00 | 0.00 | 92 | 1009.6 |
| 20260505093308 | 10 | 296 | 0.0 | 0.0 | 0.00 | 0.00 | 0.00 | 92 | 1009.6 |
| 20260505092808 | 10 | 296 | 0.0 | 0.0 | 0.00 | 0.00 | 0.00 | 92 | 1009.6 |
| 20260505091302 | 10 | 296 | 0.0 | 1.6 | 0.00 | 0.00 | 0.00 | 92 | 1009.9 |
| 20260505090301 | 10 | 296 | 0.0 | 0.0 | 0.00 | 0.00 | 0.00 | 92 | 1009.9 |
| 20260505085253 | 10 | 296 | 0.0 | 0.0 | 0.00 | 0.00 | 0.00 | 91 | 1009.8 |
| 20260505084751 | 10 | 296 | 0.0 | 0.0 | 0.00 | 0.00 | 0.00 | 91 | 1009.8 |
| 20260505084246 | 10 | 296 | 0.0 | 0.0 | 0.00 | 0.00 | 0.00 | 90 | 1009.9 |
| 20260505083741 | 10 | 296 | 0.0 | 0.0 | 0.00 | 0.00 | 0.00 | 91 | 1009.9 |
| 20260505082741 | 10 | 296 | 0.0 | 0.0 | 0.00 | 0.00 | 0.00 | 91 | 1010.1 |
| 20260505082238 | 11 | 296 | 0.0 | 0.0 | 0.00 | 0.00 | 0.00 | 91 | 1010.1 |
| 20260505081229 | 11 | 296 | 0.0 | 0.0 | 0.00 | 0.00 | 0.00 | 91 | 1010.1 |
| 20260505080725 | 11 | 296 | 0.0 | 0.0 | 0.00 | 0.00 | 0.00 | 91 | 1010.1 |
| 20260505080227 | 11 | 296 | 0.0 | 0.0 | 0.00 | 0.00 | 0.00 | 91 | 1010.1 |
| 20260505075721 | 11 | 296 | 0.0 | 0.0 | 0.00 | 0.00 | 0.00 | 91 | 1010.1 |
| 20260505075216 | 11 | 296 | 0.0 | 0.0 | 0.00 | 0.00 | 0.00 | 91 | 1010.1 |
| 20260505074717 | 11 | 296 | 0.0 | 0.0 | 0.00 | 0.00 | 0.00 | 90 | 1010.1 |
| 20260505074216 | 11 | 296 | 0.0 | 0.0 | 0.00 | 0.00 | 0.00 | 90 | 1010.1 |
| 20260505073712 | 11 | 296 | 0.0 | 0.0 | 0.00 | 0.00 | 0.00 | 90 | 1010.1 |
| 20260505073213 | 11 | 296 | 0.0 | 0.0 | 0.00 | 0.00 | 0.00 | 90 | 1010.1 |
| 20260505072705 | 11 | 296 | 0.0 | 0.0 | 0.00 | 0.00 | 0.00 | 90 | 1010.1 |
| 20260505072204 | 11 | 296 | 0.0 | 0.0 | 0.00 | 0.00 | 0.00 | 89 | 1010.1 |
| 20260505071701 | 11 | 296 | 0.0 | 0.0 | 0.00 | 0.00 | 0.00 | 89 | 1010.1 |
| 20260505071200 | 11 | 296 | 0.0 | 0.0 | 0.00 | 0.00 | 0.00 | 89 | 1010.1 |
| 20260505070657 | 11 | 296 | 0.0 | 0.0 | 0.00 | 0.00 | 0.00 | 89 | 1010.1 |
| 20260505065657 | 11 | 296 | 0.0 | 0.0 | 0.00 | 0.00 | 0.00 | 89 | 1010.0 |
| 20260505065150 | 11 | 296 | 0.0 | 1.6 | 0.00 | 0.00 | 0.00 | 88 | 1010.0 |
| 20260505064652 | 11 | 296 | 0.0 | 1.6 | 0.00 | 0.00 | 0.00 | 88 | 1010.0 |
| 20260505064150 | 11 | 296 | 0.0 | 0.0 | 0.00 | 0.00 | 0.00 | 88 | 1010.0 |
| 20260505063646 | 11 | 296 | 0.0 | 0.0 | 0.00 | 0.00 | 0.00 | 88 | 1010.0 |
| 20260505063144 | 11 | 296 | 0.0 | 0.0 | 0.00 | 0.00 | 0.00 | 88 | 1010.0 |
| 20260505062641 | 11 | 296 | 0.0 | 0.0 | 0.00 | 0.00 | 0.00 | 88 | 1010.0 |
| 20260505061640 | 11 | 296 | 0.0 | 1.6 | 0.00 | 0.00 | 0.00 | 88 | 1010.0 |
| 20260505061135 | 11 | 296 | 0.0 | 1.6 | 0.00 | 0.00 | 0.00 | 88 | 1010.0 |
| 20260505060632 | 11 | 296 | 0.0 | 0.0 | 0.00 | 0.00 | 0.00 | 88 | 1010.0 |
| 20260505060127 | 11 | 296 | 0.0 | 0.0 | 0.00 | 0.00 | 0.00 | 87 | 1010.0 |
| 20260505055622 | 11 | 296 | 0.0 | 0.0 | 0.00 | 0.00 | 0.00 | 87 | 1010.0 |
| 20260505055120 | 11 | 296 | 0.0 | 0.0 | 0.00 | 0.00 | 0.00 | 86 | 1010.0 |
| 20260505054620 | 11 | 296 | 0.0 | 0.0 | 0.00 | 0.00 | 0.00 | 86 | 1010.0 |
| 20260505053620 | 11 | 296 | 0.0 | 0.0 | 0.00 | 0.00 | 0.00 | 86 | 1010.1 |
| 20260505053118 | 12 | 296 | 0.0 | 0.0 | 0.00 | 0.00 | 0.00 | 85 | 1010.1 |
| 20260505052616 | 12 | 296 | 0.0 | 0.0 | 0.00 | 0.00 | 0.00 | 85 | 1010.1 |
| 20260505052114 | 12 | 296 | 0.0 | 0.0 | 0.00 | 0.00 | 0.00 | 85 | 1010.1 |
| 20260505051608 | 12 | 296 | 0.0 | 0.0 | 0.00 | 0.00 | 0.00 | 85 | 1010.1 |
| 20260505051106 | 12 | 296 | 0.0 | 0.0 | 0.00 | 0.00 | 0.00 | 85 | 1010.1 |
| 20260505050600 | 12 | 296 | 0.0 | 0.0 | 0.00 | 0.00 | 0.00 | 86 | 1010.1 |
| 20260505041552 | 11 | 296 | 0.0 | 0.0 | 0.00 | 0.00 | 0.00 | 84 | 1010.0 |
| 20260505041048 | 12 | 296 | 0.0 | 0.0 | 0.00 | 0.00 | 0.00 | 84 | 1009.7 |
| 20260505040544 | 12 | 296 | 0.0 | 0.0 | 0.00 | 0.00 | 0.00 | 84 | 1009.7 |
| 20260505040041 | 12 | 296 | 0.0 | 0.0 | 0.00 | 0.00 | 0.00 | 84 | 1009.7 |
| 20260505035539 | 12 | 296 | 0.0 | 1.6 | 0.00 | 0.00 | 0.00 | 84 | 1009.6 |
| 20260505035036 | 12 | 296 | 0.0 | 1.6 | 0.00 | 0.00 | 0.00 | 84 | 1009.6 |
| 20260505034535 | 12 | 296 | 0.0 | 1.6 | 0.00 | 0.00 | 0.00 | 84 | 1009.6 |
| 20260505034027 | 12 | 296 | 0.0 | 3.2 | 0.00 | 0.00 | 0.00 | 84 | 1009.5 |
| 20260505033526 | 12 | 296 | 0.0 | 3.2 | 0.00 | 0.00 | 0.00 | 83 | 1009.5 |
| 20260505033024 | 12 | 296 | 0.0 | 4.8 | 0.00 | 0.00 | 0.00 | 83 | 1009.5 |
| 20260505032527 | 12 | 296 | 1.6 | 4.8 | 0.00 | 0.00 | 0.00 | 83 | 1009.5 |
| 20260505032019 | 12 | 296 | 1.6 | 4.8 | 0.00 | 0.00 | 0.00 | 82 | 1009.5 |
| 20260505031012 | 12 | 296 | 1.6 | 4.8 | 0.00 | 0.00 | 0.00 | 82 | 1009.4 |
| 20260505030513 | 13 | 296 | 1.6 | 6.4 | 0.00 | 0.00 | 0.00 | 81 | 1009.4 |
| 20260505025513 | 13 | 296 | 3.2 | 9.7 | 0.00 | 0.00 | 0.00 | 81 | 1009.4 |
| 20260505025006 | 13 | 290 | 3.2 | 9.7 | 0.00 | 0.00 | 0.00 | 81 | 1009.4 |
| 20260505024505 | 13 | 304 | 3.2 | 8.0 | 0.00 | 0.00 | 0.00 | 81 | 1009.4 |
| 20260505024006 | 13 | 264 | 3.2 | 6.4 | 0.00 | 0.00 | 0.00 | 80 | 1009.4 |
| 20260505023506 | 13 | 264 | 3.2 | 6.4 | 0.00 | 0.00 | 0.00 | 79 | 1009.4 |
| 20260505023003 | 14 | 263 | 3.2 | 9.7 | 0.00 | 0.00 | 0.00 | 78 | 1009.4 |
| 20260505022457 | 14 | 263 | 3.2 | 9.7 | 0.00 | 0.00 | 0.00 | 78 | 1009.5 |
| 20260505021956 | 14 | 317 | 3.2 | 8.0 | 0.00 | 0.00 | 0.00 | 78 | 1009.5 |
| 20260505021452 | 14 | 32 | 3.2 | 6.4 | 0.00 | 0.00 | 0.00 | 77 | 1009.5 |
| 20260505020952 | 15 | 229 | 3.2 | 12.9 | 0.00 | 0.00 | 0.00 | 77 | 1009.5 |
| 20260505015952 | 15 | 286 | 4.8 | 11.3 | 0.00 | 0.00 | 0.00 | 76 | 1009.5 |
| 20260505015446 | 15 | 326 | 4.8 | 9.7 | 0.00 | 0.00 | 0.00 | 75 | 1009.6 |
| 20260505014944 | 15 | 276 | 4.8 | 14.5 | 0.00 | 0.00 | 0.00 | 74 | 1009.6 |
| 20260505013944 | 16 | 296 | 6.4 | 16.1 | 0.00 | 0.00 | 0.00 | 72 | 1009.5 |
| 20260505012942 | 16 | 303 | 6.4 | 12.9 | 0.00 | 0.00 | 0.00 | 70 | 1009.5 |
| 20260505012441 | 16 | 318 | 6.4 | 12.9 | 0.00 | 0.00 | 0.00 | 71 | 1009.5 |
| 20260505010436 | 17 | 306 | 9.7 | 14.5 | 0.00 | 0.00 | 0.00 | 67 | 1009.3 |
| 20260505005935 | 17 | 309 | 8.0 | 14.5 | 0.00 | 0.00 | 0.00 | 67 | 1009.3 |
| 20260505005433 | 18 | 315 | 6.4 | 12.9 | 0.00 | 0.00 | 0.00 | 63 | 1009.3 |